Tracking 18710 objects as of 29-June-2017
HD Live streaming from Space Station
objects crossing your sky now

TDRS 3

Track TDRS 3 now!
TDRS 3 is classified as:


NORAD ID: 19548
Int'l Code: 1988-091B
Perigee: 35,649.1 km
Apogee: 35,940.0 km
Inclination: 14.4 °
Period: 1,436.1 minutes
Semi major axis: 42165 km
RCS: 38.9601 m2 (large)
Launch date: September 29, 1988
Source: United States (US)
Launch site: AIR FORCE EASTERN TEST RANGE (AFETR)

Backup; still partially operational.
Your satellite tracking list
Your tracking list is empty





NASA's NSSDC Master Catalog

Two Line Element Set (TLE):
1 19548U 88091B   17179.44407639 -.00000320 +00000-0 +00000-0 0  9991
2 19548 014.4429 007.8513 0034498 314.3063 052.1541 01.00268821092563
Source of the keplerian elements: AFSPC